User: anonymous   Login
Location: Caltech
(34.1382°N, 118.1253°W)
Time: 07:37:36
(UTC-07:00)
Language:

GPS 2-04 Rocket1 - Orbit

View from above orbital plane
View from above orbital plane
View from above satellite
View from above satellite

Ground track
Ground track

The orbit data is extracted from the following two-line orbital elements,

1 20303U 89085B   17204.93163550 +.00001176 +00000-0 +43398-4 0  9990
2 20303 035.6282 170.0129 0105672 137.0501 223.8533 15.23615475506695
Epoch (UTC): 23 July 2017 22:21:33
Eccentricity: 0.0105672
inclination: 35.6282°
perigee height: 422 km
apogee height: 567 km
right ascension of ascending node: 170.0129°
argument of perigee: 137.0501°
revolutions per day: 15.23615475
mean anomaly at epoch: 223.8533°
orbit number at epoch: 50669

The dashed part of the orbit path shows where the satellite is in the earth's shadow,  

DLR